Change the Weather History Date:

Thursday, December 23, 2004

  Actual Average Record
Temperature  
Mean Temperature 7 °F -  
Max Temperature 14 °F 36 °F 77 °F (1964)
Min Temperature 0 °F 18 °F -10 °F (1983)
Degree Days  
Heating Degree Days 58    
Moisture  
Dew Point -3 °F    
Average Humidity 69    
Maximum Humidity 85    
Minimum Humidity 53    
Precipitation  
Precipitation 0.00 in - - ()
Sea Level Pressure  
Sea Level Pressure 30.50 in    
Wind  
Wind Speed 6 mph (NNW)    
Max Wind Speed 22 mph    
Max Gust Speed 25 mph    
Visibility 10 miles    
Events      
Averages and records for this station are not official NWS values.
T = Trace of Precipitation, MM = Missing Value Source: NWS Daily Summary

Daily Weather History Graph

Daily Weather History Graph

Search for Another Location

Airport or City:

Trip Planner

Search our weather history database for the weather conditions in past years. The results will help you decide how hot, cold, wet, or windy it might be!

Date:

Astronomy

Dec. 23, 2004 Rise Set
Actual Time 7:47 AM CST 5:05 PM CST
Civil Twilight 7:16 AM CST 5:36 PM CST
Nautical Twilight 6:42 AM CST 6:10 PM CST
Astronomical Twilight 6:09 AM CST 6:43 PM CST
Moon 2:49 PM CST (12/23) 5:14 AM CST (12/23)
Length of Visible Light 10h 19m
Length of Day
9h 17m
Waxing Gibbous, 93% of the Moon is Illuminated
Dec 23
Waxing Gibbous
Dec 26
Full
Jan 3
Last Quarter
Jan 10
New
Jan 17
First Quarter

Hourly Weather History & Observations

Time (CST) Temp. Windchill Dew Point Humidity Pressure Visibility Wind Dir Wind Speed Gust Speed Precip Events Conditions
12:36 AM 6.8 °F -3.5 °F -0.4 °F 72% 30.36 in 10.0 mi NNE 5.8 mph - N/A   Clear
1:17 AM 3.2 °F -6.2 °F -2.2 °F 78% 30.37 in 10.0 mi NNE 4.6 mph - N/A   Clear
1:55 AM 3.2 °F -6.2 °F -2.2 °F 78% 30.37 in 10.0 mi North 4.6 mph - N/A   Clear
2:15 AM 3.2 °F -7.8 °F -4.0 °F 72% 30.37 in 10.0 mi North 5.8 mph - N/A   Clear
2:53 AM 3.2 °F - -2.2 °F 78% 30.40 in 10.0 mi Calm Calm - N/A   Clear
3:13 AM 1.4 °F - -4.0 °F 78% 30.42 in 10.0 mi Calm Calm - N/A   Clear
3:33 AM 1.4 °F - -5.8 °F 72% 30.42 in 10.0 mi Calm Calm - N/A   Clear
3:53 AM 1.4 °F - -5.8 °F 72% 30.42 in 10.0 mi Calm Calm - N/A   Clear
4:13 AM 1.4 °F -6.2 °F -4.0 °F 78% 30.42 in 10.0 mi North 3.5 mph - N/A   Clear
4:36 AM 1.4 °F - -4.0 °F 78% 30.43 in 10.0 mi Calm Calm - N/A   Clear
4:53 AM 1.4 °F -11.3 °F -4.0 °F 78% 30.44 in 10.0 mi NNW 6.9 mph - N/A   Clear
5:13 AM 1.4 °F -9.9 °F -4.0 °F 78% 30.44 in 10.0 mi North 5.8 mph - N/A   Clear
5:33 AM 1.4 °F -8.3 °F -2.2 °F 85% 30.45 in 10.0 mi North 4.6 mph - N/A   Clear
5:53 AM 1.4 °F -6.2 °F -2.2 °F 85% 30.45 in 10.0 mi North 3.5 mph - N/A   Clear
6:13 AM 1.4 °F - -2.2 °F 85% 30.46 in 10.0 mi Calm Calm - N/A   Clear
6:33 AM 1.4 °F -8.3 °F -2.2 °F 85% 30.46 in 10.0 mi North 4.6 mph - N/A   Clear
6:57 AM 3.2 °F -9.1 °F -2.2 °F 78% 30.46 in 10.0 mi North 6.9 mph - N/A   Scattered Clouds
7:36 AM 3.2 °F -6.2 °F -2.2 °F 78% 30.49 in 10.0 mi North 4.6 mph - N/A   Clear
8:15 AM 3.2 °F - -2.2 °F 78% 30.50 in 10.0 mi Calm Calm - N/A   Clear
8:35 AM 5.0 °F -4.1 °F -2.2 °F 72% 30.50 in 10.0 mi North 4.6 mph - N/A   Clear
9:17 AM 6.8 °F -7.8 °F -2.2 °F 67% 30.54 in 10.0 mi North 10.4 mph - N/A   Clear
9:36 AM 8.6 °F -6.3 °F -2.2 °F 62% 30.55 in 10.0 mi North 11.5 mph - N/A   Clear
10:13 AM 10.4 °F -6.6 °F -0.4 °F 62% 30.57 in 10.0 mi North 16.1 mph 23.0 mph N/A   Scattered Clouds
10:33 AM 10.4 °F -6.0 °F -2.2 °F 57% 30.57 in 10.0 mi North 15.0 mph 19.6 mph N/A   Scattered Clouds
10:53 AM 10.4 °F -7.2 °F -0.4 °F 62% 30.57 in 10.0 mi NNW 17.3 mph - N/A   Clear
11:13 AM 10.4 °F -9.1 °F -0.4 °F 62% 30.56 in 10.0 mi North 21.9 mph 25.3 mph N/A   Scattered Clouds
11:36 AM 12.2 °F -4.8 °F -0.4 °F 57% 30.56 in 10.0 mi North 17.3 mph 25.3 mph N/A   Scattered Clouds
11:53 AM 12.2 °F -4.8 °F -0.4 °F 57% 30.55 in 10.0 mi North 17.3 mph 21.9 mph N/A   Scattered Clouds
12:13 PM 12.2 °F -5.3 °F -0.4 °F 57% 30.54 in 10.0 mi NNW 18.4 mph - N/A   Scattered Clouds
12:36 PM 12.2 °F -3.7 °F -0.4 °F 57% 30.55 in 10.0 mi NNW 15.0 mph - N/A   Scattered Clouds
12:53 PM 12.2 °F -4.8 °F -0.4 °F 57% 30.54 in 10.0 mi NNW 17.3 mph - N/A   Mostly Cloudy
1:13 PM 12.2 °F -2.5 °F -0.4 °F 57% 30.53 in 10.0 mi North 12.7 mph 18.4 mph N/A   Overcast
1:33 PM 12.2 °F -3.7 °F -0.4 °F 57% 30.53 in 10.0 mi North 15.0 mph 20.7 mph N/A   Overcast
1:53 PM 12.2 °F -2.5 °F -0.4 °F 57% 30.52 in 10.0 mi North 12.7 mph 19.6 mph N/A   Overcast
2:38 PM 14.0 °F -0.8 °F -0.4 °F 53% 30.51 in 10.0 mi North 13.8 mph 21.9 mph N/A   Overcast
3:14 PM 14.0 °F -0.8 °F -0.4 °F 53% 30.51 in 10.0 mi NNW 13.8 mph - N/A   Mostly Cloudy
3:50 PM 12.2 °F -4.3 °F -0.4 °F 57% 30.51 in 10.0 mi NNW 16.1 mph - N/A   Mostly Cloudy
3:56 PM 12.2 °F -3.1 °F -2.2 °F 53% 30.51 in 10.0 mi North 13.8 mph - N/A   Scattered Clouds
4:10 PM 12.2 °F -2.5 °F -2.2 °F 53% 30.51 in 10.0 mi NNW 12.7 mph - N/A   Scattered Clouds
4:30 PM 12.2 °F -1.0 °F -2.2 °F 53% 30.52 in 10.0 mi North 10.4 mph - N/A   Clear
4:50 PM 12.2 °F -1.8 °F -0.4 °F 57% 30.52 in 10.0 mi NNW 11.5 mph 18.4 mph N/A   Scattered Clouds
5:10 PM 10.4 °F -1.5 °F -0.4 °F 62% 30.52 in 10.0 mi NNW 8.1 mph - N/A   Scattered Clouds
5:30 PM 8.6 °F -1.3 °F -2.2 °F 62% 30.53 in 10.0 mi NNW 5.8 mph - N/A   Clear
5:50 PM 5.0 °F -5.6 °F -4.0 °F 66% 30.52 in 10.0 mi NNW 5.8 mph - N/A   Clear
6:10 PM 5.0 °F -4.1 °F -4.0 °F 66% 30.53 in 10.0 mi NNW 4.6 mph - N/A   Clear
6:30 PM 3.2 °F -9.1 °F -4.0 °F 72% 30.53 in 10.0 mi NNW 6.9 mph - N/A   Clear
6:50 PM 3.2 °F -7.8 °F -5.8 °F 66% 30.53 in 10.0 mi NNW 5.8 mph - N/A   Clear
7:10 PM 1.4 °F -8.3 °F -5.8 °F 72% 30.54 in 10.0 mi NW 4.6 mph - N/A   Clear
7:30 PM 1.4 °F -8.3 °F -5.8 °F 72% 30.54 in 10.0 mi NW 4.6 mph - N/A   Clear
7:50 PM 3.2 °F -6.2 °F -4.0 °F 72% 30.54 in 10.0 mi NW 4.6 mph - N/A   Clear
8:10 PM 5.0 °F -2.1 °F -4.0 °F 66% 30.54 in 10.0 mi WNW 3.5 mph - N/A   Clear
8:30 PM 5.0 °F - -4.0 °F 66% 30.53 in 10.0 mi Calm Calm - N/A   Clear
8:50 PM 1.4 °F -6.2 °F -5.8 °F 72% 30.53 in 10.0 mi West 3.5 mph - N/A   Clear
9:10 PM 1.4 °F -6.2 °F -5.8 °F 72% 30.52 in 10.0 mi West 3.5 mph - N/A   Clear
9:30 PM 3.2 °F - -4.0 °F 72% 30.52 in 10.0 mi Calm Calm - N/A   Clear
9:50 PM 1.4 °F - -4.0 °F 78% 30.51 in 10.0 mi Calm Calm - N/A   Clear
10:10 PM 1.4 °F - -4.0 °F 78% 30.51 in 10.0 mi Calm Calm - N/A   Clear
10:30 PM 1.4 °F - -5.8 °F 72% 30.50 in 10.0 mi Calm Calm - N/A   Clear
10:50 PM 1.4 °F - -5.8 °F 72% 30.50 in 10.0 mi Calm Calm - N/A   Clear
11:10 PM -0.4 °F - -5.8 °F 78% 30.49 in 10.0 mi Calm Calm - N/A   Clear
11:30 PM -0.4 °F - -5.8 °F 78% 30.49 in 10.0 mi Calm Calm - N/A   Clear
11:50 PM -0.4 °F - -5.8 °F 78% 30.48 in 10.0 mi Calm Calm - N/A   Clear